Wolf Creek Pass, CO

9:31 PM MDT on May 24, 2017 (GMT -0600)
Wolf Creek Pass

Weather History for KCPW - January, 2013

Change the Weather History Date:

Wednesday, January 9, 2013

  Actual Average (KALS) Record (KALS)
Temperature  
Mean Temperature 26 °F -  
Max Temperature 32 °F 30 °F 51 °F (1978)
Min Temperature 21 °F -7 °F -30 °F (1944)
Degree Days  
Heating Degree Days 38    
Moisture  
Dew Point -3 °F    
Average Humidity 31    
Maximum Humidity 40    
Minimum Humidity 16    
Precipitation  
Precipitation 0.00 in - - ()
Sea Level Pressure  
Sea Level Pressure 30.36 in    
Wind  
Wind Speed 14 mph (SW)    
Max Wind Speed 21 mph    
Max Gust Speed 30 mph    
Visibility 10 miles    
Events      
Averages and records for this station are not official NWS values.
T = Trace of Precipitation, MM = Missing Value Source: NWS Daily Summary

Daily Weather History Graph

Daily Weather History Graph

Search for Another Location

Airport or City:

Trip Planner

Search our weather history database for the weather conditions in past years. The results will help you decide how hot, cold, wet, or windy it might be!

Date:

Astronomy

Jan. 09, 2013 Rise Set
Actual Time 7:21 AM MST 5:07 PM MST
Civil Twilight 6:53 AM MST 5:36 PM MST
Nautical Twilight 6:20 AM MST 6:08 PM MST
Astronomical Twilight 5:49 AM MST 6:40 PM MST
Moon 5:04 AM MST (1/9) 3:12 PM MST (1/9)
Length of Visible Light 10h 43m
Length of Day
9h 45m
Waning Crescent, 6% of the Moon is Illuminated
Jan 9
Waning Crescent
Jan 11
New
Jan 18
First Quarter
Jan 26
Full
Feb 3
Last Quarter

Hourly Weather History & Observations

Time (MST) Temp. Windchill Dew Point Humidity Pressure Visibility Wind Dir Wind Speed Gust Speed Precip Events Conditions
12:07 AM 21.2 °F 7.8 °F -0.4 °F 39% 30.34 in 10.0 mi NE 15.0 mph - N/A   Clear
12:27 AM 21.2 °F 6.4 °F -0.4 °F 39% 30.35 in 10.0 mi NE 18.4 mph - N/A   Clear
12:47 AM 21.2 °F 6.4 °F -0.4 °F 39% 30.35 in 10.0 mi NE 18.4 mph - N/A   Clear
1:07 AM 21.2 °F 6.8 °F -0.4 °F 39% 30.35 in 10.0 mi NE 17.3 mph - N/A   Clear
1:27 AM 23.0 °F 8.7 °F -0.4 °F 36% 30.34 in 10.0 mi NE 18.4 mph - N/A   Clear
1:47 AM 23.0 °F 8.7 °F -0.4 °F 36% 30.34 in 10.0 mi NE 18.4 mph - N/A   Clear
2:07 AM 23.0 °F 9.6 °F -0.4 °F 36% 30.34 in 10.0 mi NE 16.1 mph - N/A   Clear
2:27 AM 23.0 °F 8.7 °F -2.2 °F 33% 30.34 in 10.0 mi NE 18.4 mph - N/A   Clear
2:47 AM 24.8 °F 11.9 °F -4.0 °F 28% 30.35 in 10.0 mi NE 16.1 mph 25.3 mph N/A   Clear
3:07 AM 24.8 °F 14.0 °F -4.0 °F 28% 30.35 in 10.0 mi NE 11.5 mph 16.1 mph N/A   Clear
3:27 AM 23.0 °F 9.2 °F -2.2 °F 33% 30.34 in 10.0 mi ENE 17.3 mph - N/A   Clear
3:47 AM 23.0 °F 8.3 °F -2.2 °F 33% 30.34 in 10.0 mi ENE 19.6 mph - N/A   Clear
4:06 AM 23.0 °F 8.7 °F -2.2 °F 33% 30.34 in 10.0 mi ENE 18.4 mph - N/A   Clear
4:26 AM 23.0 °F 9.2 °F -2.2 °F 33% 30.34 in 10.0 mi NE 17.3 mph - N/A   Clear
4:47 AM 24.8 °F 14.0 °F -2.2 °F 31% 30.34 in 10.0 mi ENE 11.5 mph 23.0 mph N/A   Clear
5:07 AM 24.8 °F 12.9 °F -2.2 °F 31% 30.35 in 10.0 mi NE 13.8 mph 20.7 mph N/A   Clear
5:27 AM 24.8 °F 13.4 °F -2.2 °F 31% 30.36 in 10.0 mi NNE 12.7 mph - N/A   Clear
5:47 AM 24.8 °F 14.6 °F -2.2 °F 31% 30.37 in 10.0 mi NNE 10.4 mph 18.4 mph N/A   Clear
6:27 AM 23.0 °F 17.0 °F -2.2 °F 33% 30.37 in 10.0 mi ENE 4.6 mph - N/A   Clear
6:47 AM 26.6 °F 20.0 °F -0.4 °F 31% 30.38 in 10.0 mi ESE 5.8 mph - N/A   Clear
7:07 AM 26.6 °F 19.1 °F -4.0 °F 26% 30.39 in 10.0 mi SE 6.9 mph - N/A   Clear
7:27 AM 24.8 °F 17.9 °F -4.0 °F 28% 30.39 in 10.0 mi South 5.8 mph - N/A   Clear
7:47 AM 23.0 °F 13.1 °F -2.2 °F 33% 30.41 in 10.0 mi SSW 9.2 mph - N/A   Clear
8:07 AM 23.0 °F 11.7 °F -2.2 °F 33% 30.43 in 10.0 mi SW 11.5 mph - N/A   Clear
8:27 AM 23.0 °F 13.9 °F -2.2 °F 33% 30.44 in 10.0 mi WSW 8.1 mph - N/A   Clear
8:47 AM 23.0 °F 9.6 °F -0.4 °F 36% 30.45 in 10.0 mi SSW 16.1 mph - N/A   Clear
9:07 AM 23.0 °F 9.2 °F 1.4 °F 39% 30.45 in 10.0 mi WSW 17.3 mph - N/A   Clear
9:27 AM 24.8 °F 10.3 °F 1.4 °F 36% 30.46 in 10.0 mi SW 20.7 mph - N/A   Clear
9:47 AM 23.0 °F 8.7 °F 1.4 °F 39% 30.46 in 10.0 mi SW 18.4 mph 29.9 mph N/A   Clear
10:07 AM 23.0 °F 8.7 °F 1.4 °F 39% 30.46 in 10.0 mi SW 18.4 mph 21.9 mph N/A   Clear
10:27 AM 24.8 °F 11.9 °F 3.2 °F 40% 30.46 in 10.0 mi SW 16.1 mph 23.0 mph N/A   Clear
10:47 AM 26.6 °F 14.3 °F 3.2 °F 37% 30.47 in 10.0 mi SSW 16.1 mph 20.7 mph N/A   Clear
11:07 AM 26.6 °F 14.3 °F 3.2 °F 37% 30.45 in 10.0 mi SSW 16.1 mph - N/A   Clear
11:27 AM 28.4 °F 17.5 °F 5.0 °F 37% 30.44 in 10.0 mi SSW 13.8 mph 18.4 mph N/A   Clear
11:47 AM 26.6 °F 14.3 °F 5.0 °F 40% 30.43 in 10.0 mi SW 16.1 mph - N/A   Clear
12:07 PM 28.4 °F 18.5 °F 5.0 °F 37% 30.42 in 10.0 mi SW 11.5 mph 18.4 mph N/A   Clear
12:27 PM 28.4 °F 18.5 °F 5.0 °F 37% 30.42 in 10.0 mi SSW 11.5 mph 16.1 mph N/A   Clear
12:47 PM 28.4 °F 18.0 °F 5.0 °F 37% 30.40 in 10.0 mi SSW 12.7 mph 17.3 mph N/A   Clear
1:07 PM 28.4 °F 18.5 °F 5.0 °F 37% 30.39 in 10.0 mi SW 11.5 mph 17.3 mph N/A   Clear
1:27 PM 30.2 °F 19.8 °F 5.0 °F 34% 30.39 in 10.0 mi SW 13.8 mph - N/A   Clear
1:47 PM 30.2 °F 20.8 °F 3.2 °F 32% 30.38 in 10.0 mi SSW 11.5 mph 17.3 mph N/A   Clear
2:07 PM 30.2 °F 20.8 °F 3.2 °F 32% 30.38 in 10.0 mi SSW 11.5 mph 18.4 mph N/A   Clear
2:27 PM 32.0 °F 24.2 °F 3.2 °F 30% 30.38 in 10.0 mi South 9.2 mph 17.3 mph N/A   Clear
2:47 PM 32.0 °F 22.5 °F 3.2 °F 30% 30.38 in 10.0 mi SSW 12.7 mph 19.6 mph N/A   Clear
3:07 PM 30.2 °F 20.2 °F -0.4 °F 27% 30.38 in 10.0 mi SW 12.7 mph 19.6 mph N/A   Clear
3:27 PM 30.2 °F 19.3 °F -0.4 °F 27% 30.38 in 10.0 mi SSW 15.0 mph 19.6 mph N/A   Clear
3:47 PM 30.2 °F 20.2 °F -0.4 °F 27% 30.37 in 10.0 mi SSW 12.7 mph 18.4 mph N/A   Clear
4:07 PM 30.2 °F 20.2 °F -0.4 °F 27% 30.37 in 10.0 mi SSW 12.7 mph 16.1 mph N/A   Clear
4:27 PM 30.2 °F 20.2 °F -0.4 °F 27% 30.37 in 10.0 mi WSW 12.7 mph - N/A   Clear
4:47 PM 28.4 °F 19.7 °F 1.4 °F 31% 30.36 in 10.0 mi SSW 9.2 mph 17.3 mph N/A   Clear
5:07 PM 26.6 °F 17.5 °F 1.4 °F 34% 30.36 in 10.0 mi SSW 9.2 mph - N/A   Clear
5:27 PM 23.0 °F 12.4 °F 1.4 °F 39% 30.35 in 10.0 mi SW 10.4 mph - N/A   Clear
5:47 PM 23.0 °F 12.4 °F -2.2 °F 33% 30.34 in 10.0 mi SW 10.4 mph - N/A   Clear
6:07 PM 23.0 °F 11.7 °F -4.0 °F 31% 30.34 in 10.0 mi SW 11.5 mph - N/A   Clear
6:27 PM 23.0 °F 12.4 °F -4.0 °F 31% 30.34 in 10.0 mi SW 10.4 mph - N/A   Clear
7:07 PM 23.0 °F 15.8 °F -4.0 °F 31% 30.33 in 10.0 mi SW 5.8 mph - N/A   Clear
7:27 PM 23.0 °F 13.9 °F -5.8 °F 28% 30.32 in 10.0 mi WSW 8.1 mph - N/A   Clear
7:47 PM 23.0 °F 12.4 °F -7.6 °F 26% 30.32 in 10.0 mi West 10.4 mph - N/A   Clear
8:07 PM 24.8 °F 15.3 °F -11.2 °F 20% 30.31 in 10.0 mi WSW 9.2 mph - N/A   Clear
8:27 PM 24.8 °F 16.1 °F -13.0 °F 19% 30.31 in 10.0 mi WSW 8.1 mph - N/A   Clear
8:47 PM 24.8 °F 16.9 °F -13.0 °F 19% 30.30 in 10.0 mi WSW 6.9 mph - N/A   Clear
9:07 PM 24.8 °F 14.6 °F -14.8 °F 17% 30.29 in 10.0 mi WSW 10.4 mph - N/A   Clear
9:27 PM 26.6 °F 16.8 °F -14.8 °F 16% 30.29 in 10.0 mi WSW 10.4 mph - N/A   Clear
9:47 PM 26.6 °F 16.2 °F -14.8 °F 16% 30.29 in 10.0 mi WSW 11.5 mph - N/A   Clear
10:07 PM 26.6 °F 16.2 °F -14.8 °F 16% 30.27 in 10.0 mi WSW 11.5 mph - N/A   Clear
10:27 PM 26.6 °F 14.7 °F -14.8 °F 16% 30.27 in 10.0 mi SW 15.0 mph - N/A   Clear
10:47 PM 26.6 °F 16.2 °F -14.8 °F 16% 30.27 in 10.0 mi SW 11.5 mph - N/A   Clear
11:07 PM 24.8 °F 14.0 °F -14.8 °F 17% 30.27 in 10.0 mi SW 11.5 mph - N/A   Clear
11:27 PM 24.8 °F 14.0 °F -14.8 °F 17% 30.26 in 10.0 mi SW 11.5 mph - N/A   Clear
11:47 PM 24.8 °F 13.4 °F -14.8 °F 17% 30.24 in 10.0 mi SW 12.7 mph - N/A   Clear